Regional Weather Roundup
Issued by NWS Wakefield, VA

Home | Current Version | Previous Version | Graphics & Text | Print | Product List | Glossary On
Versions: 1 2 3 4 5 6 7 8 9 10 11 12 13 14 15 16 17 18 19 20 21 22 23 24 25 26 27 28 29 30 31 32 33 34 35 36 37 38 39 40 41 42 43 44 45 46 47 48 49 50
000
ASUS41 KAKQ 170515
RWRAKQ

REGIONAL WEATHER ROUNDUP
NATIONAL WEATHER SERVICE WAKEFIELD VA
1200 AM EST SUN DEC 17 2017

Note: "fair" indicates few or no clouds below 12,000 feet with no
significant weather and/or obstructions to visibility. * = Denotes
station may not report precipitation (e.g., rain,snow,etc.),
thunder or fog.

VAZ042-051-052>054-056-170600-
NORTHERN VIRGINIA

CITY           SKY/WX    TMP DP  RH WIND       PRES   REMARKS
WASH NATIONAL  CLEAR     36  27  69 CALM      30.22R
DULLES         CLEAR     32  24  72 CALM      30.20R
FORT BELVOIR   CLEAR     27  22  84 CALM      30.22R
QUANTICO       CLEAR     30  27  88 NW5       30.23R
FREDERICKSBRG* CLEAR     29  24  83 CALM      30.20S
STAFFORD*      CLEAR     32  26  78 CALM      30.25R
WARRENTON      CLEAR     25  20  80 CALM      30.20R
CULPEPER*      CLOUDY    25  20  82 CALM      30.21S
MANASSAS*      CLEAR     21  19  92 CALM      30.22R
LEESBURG*      CLEAR     30  27  86 CALM      30.21R
WINCHESTER     CLOUDY    27  21  80 CALM      30.18R
FRONT ROYAL*   CLOUDY    28  23  80 CALM      30.18R
LURAY*         CLOUDY    30  27  86 CALM      30.18S
$$

VAZ048-049-060>072-079>083-170600-
CENTRAL AND SOUTH CENTRAL VIRGINIA

CITY           SKY/WX    TMP DP  RH WIND       PRES   REMARKS
RICHMOND       CLEAR     32  24  72 S5        30.22S
CHESTERFIELD*  NOT AVBL
PETERSBURG*    CLOUDY    30  21  69 CALM      30.23S
HANOVER        CLEAR     34  26  72 S3        30.23R
TAPPAHANNOCK*  CLEAR     32  26  78 S3        30.23R
QUINTON*       FAIR      29  25  85 S6        30.22S
CHARLOTTSVILLE CLOUDY    42  24  49 S5        30.18R
GORDONSVILLE*  PTCLDY    29  25  84 W3        30.19R
ORANGE*        CLEAR     30  23  74 CALM      30.19S
LOUISA*        CLEAR     35  24  63 SW8       30.24R
BUMPASS*       FAIR      32  23  70 CALM      30.20S
FARMVILLE*     CLOUDY    36  27  70 SW5       30.22R
CREWE*         FAIR      33  25  70 CALM      30.22R
FORT PICKETT*  NOT AVBL
CHASE CITY*    FAIR      32  24  72 CALM      30.24S
CLARKSVILLE*   FAIR      32  27  80 SW5       30.24S
SOUTH HILL*    CLOUDY    34  26  72 SW5       30.30S
LAWRENCEVILLE* FAIR      32  24  73 CALM      30.24S
EMPORIA*       CLOUDY    28  23  80 CALM      30.27R
$$

VAZ088>098-170600-
SOUTHEAST VIRGINIA

CITY           SKY/WX    TMP DP  RH WIND       PRES   REMARKS
NORFOLK        CLEAR     32  25  75 SW6       30.24F
VIRGINIA BEACH CLEAR     34  23  64 SW7       30.24F
NORFOLK NAVAL  CLEAR     41  26  55 SW7       30.25S
WEST POINT*    CLEAR    N/A N/A N/A CALM      30.25S
SALUDA*        FAIR      38  26  61 SW3       30.22S
NEWPORT NEWS   CLEAR     37  26  64 SW6       30.24S
LANGLEY AFB    CLEAR     37  26  64 W6        30.23F
FORT EUSTIS    CLEAR     39  25  58 SW6       30.21S
WILLIAMSBURG*  CLEAR     39  27  60 CALM      30.24F
HR EXEC AP*    FAIR      26  24  92 W3        30.26S
FRANKLIN*      CLOUDY    32  24  73 CALM      30.26R
US460-WAKEFLD  CLOUDY    31  25  78 S3        30.24S
$$

VAZ020-022-025-037-045-170600-
WEST CENTRAL AND SOUTHWEST VIRGINIA

CITY           SKY/WX    TMP DP  RH WIND       PRES   REMARKS
STAUNTON*      CLOUDY    28  21  74 CALM      30.20S
WAYNESBORO*    CLOUDY    31  22  71 CALM      30.18R
HOT SPRINGS VA CLOUDY    32  20  60 W20       30.14R WCI  21
LYNCHBURG      CLOUDY    32  23  69 SW3       30.21R
DANVILLE       CLOUDY    29  23  78 SW3       30.26R
SOUTH BOSTON*  FAIR      32  22  68 CALM      30.25S
MARTINSVILLE   CLOUDY    28  22  78 CALM      30.27S
ROANOKE        CLOUDY    41  24  51 W10G21    30.24R
BLACKSBURG     CLOUDY    30  24  80 CALM      30.25R
DUBLIN*        CLOUDY    33  25  72 SW5       30.25R
MARION*        CLOUDY    32  24  72 W12       30.27S WCI  23
HILLSVILLE*    CLOUDY    32  22  65 CALM      30.21R
RICHLANDS*     FAIR      34  24  68 S3        30.23S
WISE*          CLOUDY    34  28  80 S6        30.23S
ABINGDON*      CLOUDY    32  26  78 CALM      30.26S
$$

MDZ021>025-VAZ099-100-170600-
SOUTHERN MARYLAND AND THE DELMARVA PENINSULA

CITY           SKY/WX    TMP DP  RH WIND       PRES   REMARKS
PATUXENT RIVER CLEAR     37  26  64 W5        30.22R
BAY BRIDGE APT CLEAR     37  27  65 SW3       30.21S
LEONARDTOWN    CLEAR     36  27  69 SW3       30.23R
DOVER          CLEAR     33  30  89 SW5       30.21R
GEORGETOWN     PTCLDY    28  25  88 CALM      30.23R
EASTON         CLEAR     31  24  74 CALM      30.25R
CAMBRIDGE      CLEAR     28  27  93 SE3       30.22R
SALISBURY      CLEAR     30  28  92 CALM      30.22R
OCEAN CITY     CLEAR     37  29  72 W6        30.23R
WALLOPS ISLAND CLEAR     41  28  60 W7        30.23S
ACCOMACK*      CLEAR     40  30  67 SW5       30.23S
$$

NCZ012>017-030>032-170600-
NORTH CENTRAL AND EASTERN NORTH CAROLINA

CITY           SKY/WX    TMP DP  RH WIND       PRES   REMARKS
ROANOKE RAPIDS FAIR      32  27  80 SW3       30.26S
RALEIGH        CLOUDY    33  24  69 SW6       30.27S
ELIZABETH CITY CLOUDY    36  31  82 SW5       30.26F
AHOSKIE*       CLOUDY    30  26  83 CALM      30.27S
EDENTON*       NOT AVBL
CURRITUCK*     CLOUDY    38  29  72 CALM      30.27S
KILL DEVIL HLS CLOUDY    38  31  78 CALM      30.25F
MANTEO         CLOUDY    38  32  78 SW5       30.27F
CAPE HATTERAS  CLEAR     35  33  92 W5        30.29R
TARBORO*       NOT AVBL
GOLDSBORO      CLEAR     33  27  78 CALM      30.28R
WASHINGTON     CLOUDY    32  27  81 CALM      30.29R
GREENVILLE     CLOUDY    32  28  86 CALM      30.29S
NEW BERN       CLEAR     31  29  92 SW5       30.31R
WILMINGTON     PTCLDY    34  32  92 CALM      30.32S
$$

VAZ048-170600-
ELSEWHERE

CITY           SKY/WX    TMP DP  RH WIND       PRES   REMARKS
HARRISBURG PA  CLEAR     30  26  85 E5        30.17R
BALTIMORE      CLEAR     28  24  85 CALM      30.20R
ANNAPOLIS      CLEAR     34  30  85 CALM      30.21R
ANDREWS AFB    CLEAR     29  22  77 CALM      30.20R
PHILADELPHIA   CLOUDY    37  29  72 SW3       30.21R
HENDERSON NC   CLOUDY    28  22  76 SW7       30.26R
GREENSBORO     CLOUDY    35  24  64 SW6       30.24F
ROCKY MOUNT    CLOUDY    33  27  78 S3        30.28R
$$

VAZ100-170600-
MARINE

STATION/POSITION TIME  TEMP    WIND        PRES    WAVE   SWELL
                       AIR SEA DIR/SP/G            HT/PER HT/PER
                 (UTC) (F)     (DEG/KT/KT) (MB)    (FT/S) (FT/S)
BRANDYWINE LGT   0442   42     240/ 15/ 18 1023.4R
CAPE MAY NJ      0448   41 40  250/ 12/ 15 1022.7R
LEWES DE         0448   37 41  230/  5/  8 1023.2R
15NM E FENWICK I 0450   47 52  240/ 16/ 17 1023.8R   3/ 5
OCEAN-CITY-INLET 0448   40 42  270/  7/  8 1023.9R
WACHAPREAGUE VA  0448   38 38  240/  3/  3 1023.7S
THOMAS POINT MD  0500   39 44  260/  4/  5   N/A
GOOSES REEF MD   0500   43 45  240/ 10/ 12 1023.5    1/ 2
COVE POINT MD    0448   42     270/ 14/ 18 1023.4R
SOLOMONS ISLAND  0448   41 44  250/  4/  4 1023.0R
BISHOPS HEAD MD  0448   42 36  220/  6/  8 1023.4R
PINEY POINT MD   0448          330/  5/  6   N/A
POTOMAC MD       0500   43 45  250/ 10/ 12 1022.7    1/ 2
CAMBRIDGE MD     0442   34 40              1023.8R
LEWISETTA VA     0448   40 40  250/  9/ 11 1023.1R
RAPPAHANNOCK LGT 0448          230/ 11/ 14 1024.2S
STINGRAY PT      0500   42 44  260/  8/ 10 1023.6    1/ 2
YORK RVR RNG VA  0448   42     240/ 10/ 12 1024.1F
YORKTOWN VA      0448   41 46  230/  6/  8 1023.4S
JAMESTOWN VA     0500      43  260/  4/  8   N/A     0
DOMINION TERM VA 0448   41     230/  5/  6 1024.3R
KIPTOPEKE VA     0448      44  250/  8/ 12   N/A
CAPE HENRY VA    0448   41     220/ 10/ 12   N/A
WILLOUBY STN VA  0442          230/ 10/ 11 1023.8F
S CRANEY ISL VA  0448   40     220/  6/  8 1023.9F
CAPE HENRY BUOY  0500      50                N/A     2/10
1ST LANDING BUOY 0500   42 47  250/ 12/ 14 1024.0    1
CAPE CHARLES BUO 0451      49                N/A     2/ 2
64NM E OF VA BCH 0450   50 59  270/ 16/ 19 1024.6R   4/ 5   2/10
DUCK PIER NC     0448   42 52  240/  8/  9 1024.0F
44100 DUCK FRF   0445      54                N/A     2/ 3
44056 DUCK FRF   0500      54                N/A     1/11
OREGON INLET NC  0442   43 46  230/  8/  9 1024.8F
HATTERAS NC      0448   44 52  250/  4/  6 1025.3R
DIAMOND SHLS NC  0450   53 72  290/ 14/ 19 1025.8R   3/ 7   2/ 7
CAPE LOOKOUT NC  0500          260/  7/  9 1026.2R
$$



USA.gov is the U.S. government's official web portal to all federal, state and local government web resources and services.